Powrót do katalogu

YAOGAN-36 03B

AktywnyMilitariaVLEO
NORAD 54374·PAYLOAD·🇨🇳 China

Wystrzelony Nov 27, 2022 z Xichang Satellite Launch Center

Loading…

Następne Przeloty (najbliższe 24 godziny)

TLE

ŚwieżeSource: Space-Track

Epoka: Sep 14, 2026, 05:04 UTC

1 54374U 22160C   26257.21121086  .00006092  00000-0  26225-3 0  9994
2 54374  34.9924 167.2563 0009441 245.2263 114.7469 15.21907780211295

Śledź YAOGAN-36 03B w czasie rzeczywistym z AllMySat

Download on the App Store